Regional Weather Roundup
Issued by NWS

Home | Current Version | Previous Version | Text Only | Print | Product List | Glossary Off
Versions: 1 2 3 4 5 6 7 8 9 10 11 12 13 14 15 16 17 18 19 20 21 22 23 24 25 26 27 28 29 30 31 32 33 34 35 36 37 38 39 40 41 42 43 44 45 46 47 48 49 50

000
ASUS43 KBIS 061720
RWRND

NORTH DAKOTA REGIONAL WEATHER ROUNDUP
NATIONAL WEATHER SERVICE BISMARCK ND
1100 AM CST FRI MAR 06 2015

NOTE: "FAIR" INDICATES FEW OR NO CLOUDS BELOW 12,000 FEET WITH NO
SIGNIFICANT WEATHER AND/OR OBSTRUCTIONS TO VISIBILITY.


NDZ001>003-009>011-017-061800-
NORTHWEST NORTH DAKOTA

CITY           SKY/WX    TMP DP  RH WIND       PRES   REMARKS
WILLISTON      CLOUDY    31  21  66 S6        30.03F
MINOT          PTSUNNY   29  16  58 S9        30.04F
MINOT AFB      PTSUNNY   28  21  75 SW12      30.03F WCI  18
$$

NDZ018>021-031>035-040>046-061800-
SOUTHWEST NORTH DAKOTA

CITY           SKY/WX    TMP DP  RH WIND       PRES   REMARKS
BISMARCK       PTSUNNY   31  18  58 S3        30.13S
DICKINSON      CLOUDY    38  18  44 W9        30.04F
GARRISON         N/A     29  20  69 S6        30.07F
HETTINGER ARPT CLOUDY    42  17  36 W7        30.08F
$$

NDZ004>008-012>016-024-026-027-054-061800-
NORTHEAST NORTH DAKOTA

CITY           SKY/WX    TMP DP  RH WIND       PRES   REMARKS
GRAND FORKS    MOSUNNY   30  14  51 NW5       30.08R
GRND FRKS AFB  SUNNY     31  14  49 W8        30.07S
DEVILS LAKE    MOSUNNY   25  18  74 W9        30.06S WCI  15
$$

NDZ022-023-025-028>030-036>039-047>053-061800-
SOUTHEAST NORTH DAKOTA

CITY           SKY/WX    TMP DP  RH WIND       PRES   REMARKS
FARGO          SUNNY     30  16  56 NW12      30.10R
JAMESTOWN      SUNNY     30  18  60 W9        30.09R
$$



USA.gov is the U.S. government's official web portal to all federal, state and local government web resources and services.